Regional Weather Roundup
Issued by NWS

Home | Current Version | Previous Version | Graphics & Text | Print | Product List | Glossary On
Versions: 1 2 3 4 5 6 7 8 9 10 11 12 13 14 15 16 17 18 19 20 21 22 23 24 25 26 27 28 29 30 31 32 33 34 35 36 37 38 39 40 41 42 43 44 45 46 47 48 49 50
000
ASUS43 KMPX 251801
RWRMN
WEATHER ROUNDUP FOR MINNESOTA
NATIONAL WEATHER SERVICE TWIN CITIES/CHANHASSEN MN
1200 PM CST THU DEC 25 2014


NOTE: "FAIR" INDICATES FEW OR NO CLOUDS BELOW 12,000 FEET WITH NO
SIGNIFICANT WEATHER AND/OR OBSTRUCTIONS TO VISIBILITY. N/A MEANS
CURRENT SKY AND/OR WEATHER CONDITIONS ARE NOT AVAILABLE.

MNZ060>063-068>070-251900-
   Twin Cities Metro

CITY           SKY/WX    TMP DP  RH WIND       PRES   REMARKS
TWIN CITIES    CLOUDY    33  27  78 S7        29.75R WCI  27
6HR MIN TEMP:  30; 6HR MAX TEMP:  34;

ST PAUL        CLOUDY    34  29  82 S9        29.76S WCI  27
CRYSTAL        LGT SNOW  33  29  85 S5        29.74R FOG     WCI  29
BLAINE         LGT SNOW  34  34 100 S6        29.74R WCI  29
LAKEVILLE      CLOUDY    32  28  86 S7        29.74F WCI  26
EDEN PRAIRIE   CLOUDY    34  28  79 S5        29.73S WCI  30
6HR MIN TEMP:  30; 6HR MAX TEMP:  34;

SOUTH ST PAUL  CLOUDY    34  29  83 S6        29.75S WCI  29
LAKE ELMO      CLOUDY    34  30  86 S9        29.75S WCI  26
$$
MNZ001>005-007-008-013>017-022>024-027-028-251900-
   Northwest Minnesota

CITY           SKY/WX    TMP DP  RH WIND       PRES   REMARKS
BEMIDJI        CLOUDY    30  25  84 W7        29.68R WCI  23
HALLOCK        CLOUDY    27  25  93 NW10      29.73R WCI  17
ROSEAU         CLOUDY    28  23  80 W10       29.68S WCI  19
WARROAD        CLOUDY    27  25  93 W10       29.68R WCI  17
THIEF RVR FALL CLOUDY    28  23  80 NW13      29.71R WCI  18
CROOKSTON      CLOUDY    28  25  86 N12       29.75R WCI  18
FOSSTON        CLOUDY    27  25  93 W8        29.71R WCI  18
DETROIT LAKES  CLOUDY    30  28  93 NW9       29.72R WCI  22
MOORHEAD       CLOUDY    28  28 100 NW9       29.76R WCI  20
PARK RAPIDS    CLOUDY    29  23  78 NW7       29.69R WCI  22
MAHNOMEN       CLOUDY    28  25  89 W9        29.71R WCI  19
$$
MNZ006-009>011-018-025>026-251900-
   North Central Minnesota

CITY           SKY/WX    TMP DP  RH WIND       PRES   REMARKS
BAUDETTE       CLOUDY    30  23  75 NW10G18   29.65R WCI  21
FLAG ISLAND    CLOUDY    27  25  93 W16       29.65R WCI  14
INTL FALLS     MIX PCPN  30  27  88 W7        29.63S WCI  23
6HR MIN TEMP:  29; 6HR MAX TEMP:  30; 6HR PCP: TRACE;

WASKISH        CLOUDY    30  28  93 CALM      29.67R
BIG FORK       PTSUNNY   30  27  86 W6        29.66R WCI  24
LONGVILLE      CLOUDY    28  27  93 W6        29.69R WCI  22
GRAND RAPIDS   CLOUDY    30  27  86 NW10      29.67R WCI  21
CRANE LAKE     CLOUDY    30  27  86 SW5       29.65S WCI  25
ORR            CLOUDY    30  25  80 W7        29.62R WCI  23
COOK           CLOUDY    30  27  86 W8G16     29.65R WCI  23
WALKER         CLOUDY    28  24  84 W5        29.69R WCI  23
$$
MNZ012-019>021-037-251900-
   Northeast Minnesota

CITY           SKY/WX    TMP DP  RH WIND       PRES   REMARKS
DULUTH         CLOUDY    31  27  85 W10       29.66S WCI  22
6HR MIN TEMP:  31; 6HR MAX TEMP:  31;

ELY            CLOUDY    30  27  86 W7        29.63R WCI  23
HIBBING        CLOUDY    32  26  78 W3        29.65R
EVELETH        PTSUNNY   32  28  86 W9        29.66R WCI  24
DULUTH HARBOR  CLOUDY    34  30  86 W10       29.71S WCI  26
TWO HARBORS    CLOUDY    36  28  75 W7        29.66R
SILVER BAY     CLOUDY    34  27  75 W3        29.64S
GRAND MARAIS     N/A     35  28  75 W7        29.65R WCI  29
G MARAIS ARPRT CLOUDY    28  23  80 W7        29.60S WCI  21
$$
MNZ029>031-032-039>041-046>048-054>057-064-251900-
   West Central Minnesota

CITY           SKY/WX    TMP DP  RH WIND       PRES   REMARKS
FERGUS FALLS   CLOUDY    28  27  93 N7        29.75F WCI  21
WHEATON        CLOUDY    25  23  93 NW10      29.77R WCI  15
MORRIS         CLOUDY    30  28  93 N13       29.71R WCI  20
ALEXANDRIA     CLOUDY    31  27  85 NW9       29.70S WCI  23
ELBOW LAKE     CLOUDY    27  25  95 NW12      29.72S WCI  16
WADENA         CLOUDY    27  27 100 NW7       29.70R WCI  19
GLENWOOD       CLOUDY    32  28  86 W5        29.71R WCI  27
APPLETON       CLOUDY    34  30  86 N6        29.72R WCI  29
BENSON         CLOUDY    34  28  80 N3        29.72R
ORTONVILLE     CLOUDY    30  27  86 N12       29.73R WCI  21
MADISON        LGT SNOW  36  34  93 N3        29.72S
WILLMAR        LGT SNOW  32  30  93 CALM      29.73R
$$
MNZ033>034-036-042>043-049>051-058-059-251900-
   Central Minnesota

CITY           SKY/WX    TMP DP  RH WIND       PRES   REMARKS
ST CLOUD       CLOUDY    34  28  79 SW7       29.72R WCI  28
6HR MIN TEMP:  32; 6HR MAX TEMP:  34; 6HR PCP: TRACE;

SAUK CENTRE    CLOUDY    32  28  86 W3        29.71R
PAYNESVILLE    CLOUDY    29  28  93 S3        29.72S
AITKIN         CLOUDY    34  28  80 W3        29.68S
PINE RIVER     CLOUDY    30  27  86 NW3       29.73S
BRAINERD       CLOUDY    31  27  85 W6        29.70R WCI  25
STAPLES        CLOUDY    30  27  86 NW8       29.70R WCI  23
LONG PRAIRIE   CLOUDY    30  28  93 W3        29.70S
LITTLE FALLS   CLOUDY    32  28  86 CALM      29.72R
LITCHFIELD     LGT SNOW  34  32  93 CALM      29.73S
BUFFALO        LGT SNOW  32  29  90 S3        29.74S
MAPLE LAKE     LGT SNOW  33  32  95 S6        29.73S WCI  27
$$
MNZ037-044-045-052-053-251900-
   East Central Minnesota

CITY           SKY/WX    TMP DP  RH WIND       PRES   REMARKS
PRINCETON      CLOUDY    34  28  80 CALM      29.73S
MORA           CLOUDY    32  27  80 SW6       29.73F WCI  26
CAMBRIDGE      CLOUDY    34  27  75 SW5       29.72R WCI  30
RUSH CITY      CLOUDY    32  28  84 SW5       29.73S WCI  27
MOOSE LAKE     CLOUDY    32  28  86 SW7       29.69S WCI  26
HINCKLEY       CLOUDY    32  30  93 CALM      29.72F FOG
CLOQUET        CLOUDY    30  27  86 SW6       29.68S WCI  24
MCGREGOR       CLOUDY    32  28  86 W5        29.70R WCI  27
$$
MNZ071>073-080-081-089-090-097-098-251900-
   Southwest Minnesota

CITY           SKY/WX    TMP DP  RH WIND       PRES   REMARKS
MONTEVIDEO     LGT SNOW  34  34 100 CALM      29.72F
GRANITE FALLS  LGT SNOW  31  30  94 CALM      29.73F
CANBY          LGT SNOW  32  31  96 N6        29.72S WCI  26
MARSHALL       CLOUDY    32  27  80 NE7       29.71S WCI  26
REDWOOD FALLS  CLOUDY    33  28  81 CALM      29.71F
OLIVIA         CLOUDY    32  30  93 CALM      29.71F FOG
PIPESTONE      CLOUDY    30  28  93 NE6       29.65F WCI  24
WINDOM         CLOUDY    34  28  80 CALM      29.68F
WORTHINGTON    PTSUNNY   36 -15  11 SE5       29.66F
JACKSON        CLOUDY    34  28  80 S5        29.68F WCI  30
TRACY          CLOUDY    32  30  92 N5        29.70S WCI  28
SLAYTON        CLOUDY    31  28  90 CALM      29.67F
$$
MNZ065>067-074>077-082>085-091>093-251900-
   South Central Minnesota

CITY           SKY/WX    TMP DP  RH WIND       PRES   REMARKS
MANKATO        CLOUDY    34  27  75 S8        29.73S WCI  27
NEW ULM        CLOUDY    32  30  93 S6        29.71F WCI  26
ST JAMES       PTSUNNY   34  30  86 S6        29.73R WCI  29
FAIRMONT       PTSUNNY   34  27  75 S6        29.70F WCI  29
GLENCOE        CLOUDY    33  32  94 S3        29.72F
FARIBAULT      CLOUDY    34  30  86 S9        29.74F WCI  26
OWATONNA       CLOUDY    34  28  80 S8        29.73F WCI  27
ALBERT LEA     CLOUDY    34  30  86 S8        29.73S WCI  27
$$
MNZ078>079-086>088-094>096-251900-
   Southeast Minnesota

CITY           SKY/WX    TMP DP  RH WIND       PRES   REMARKS
ROCHESTER      CLOUDY    32  28  85 S15       29.75F WCI  22
6HR MIN TEMP:  28; 6HR MAX TEMP:  32;

RED WING       CLOUDY    36  28  75 S6        29.76S
STANTON        CLOUDY    35  30  82 S8        29.74S WCI  28
DODGE CENTER   CLOUDY    34  30  86 S13       29.73F WCI  25
WINONA         CLOUDY    36  30  80 S3        29.79F
AUSTIN         CLOUDY    34  28  80 S13       29.74F WCI  25
PRESTON        CLOUDY    32  29  87 S15       29.76F WCI  22
$$
ABBREVIATIONS USED IN REMARKS
   TC - TEMPERATURES IN CELSIUS
  WCI - WIND CHILL INDEX
   HX - HEAT INDEX
  VSB - VISIBILITY
$$


USA.gov is the U.S. government's official web portal to all federal, state and local government web resources and services.